CZ-6A DEB, 54412

Orbit data source: Space-Track

CZ-6A DEB, 54412 is space debris in SSO originally from a launch on Fri, 11 Nov 2022 UTC launched from the Taiyaun Space Center, China (TSC). Debris objects in space refer to the collection of defunct objects orbiting the Earth. Examples of debris include non-operational satellites, rocket bodies, and fragments generated from explosions, collisions, or faulty payload assembly.

Loading next visibility...
Identifier
54412, 2022-151EL
Orbit
SSO
Country
Flag of CNCN / PRC
Related business
Manufacturer
SAST
Mission
Spacecraft
Bus & Motor
Unknown
Mass
Unknown
Launch date (UTC)
2022-11-11 (3 years ago)
Launch vehicle
Unknown
Launch site
Taiyaun Space Center, China (TSC)
Object type
Payload
Rocket body
Debris
Shape & HBR
Unknown shape, 0.1 m
Radar Cross Section
Small (<0.1 m²)

Expand to show TLE details & history
Last TLE update: 8 hours ago

TLE from 8 hours ago
0 CZ-6A DEB
1 54412U 22151EL  26130.18304062  .00008557  00000-0  86174-3 0  9997
2 54412  98.6357 235.4278 0091292 230.8632 128.4443 14.88358442186912
Epoch: 2026-05-10T04:23Z
TLE epoch observation values (Epoch: 2026-05-10T04:23:34.709Z)
Latitude
-0.00001°
Longitude
-58.4566°
Altitude
646.062 km
Speed
7.513 km/s
True Right ascension
15h 41m 42s
True Declination
0° 00' 00"
Sunlit
Object was in full shadow at epoch
Visualization orbit readout
Latitude
Unknown
Longitude
Unknown
Altitude
Unknown
Speed
Unknown
Apparent Right ascension
Unknown
Apparent Declination
Unknown
Sunlit
N/A
Visualization observer readout
Local Sidereal Time
20:41:37
Azimuth
Unknown
Elevation
Unknown
Doppler factor
Unknown
Orbital elements
Apogee altitude
663.834 km
Perigee altitude
536.422 km
Semi-major axis
6,978.265 km
Eccentricity
0.00913
Inclination
98.6357°
RAAN
235.4278°
Arg. of periapsis
230.8632°
True anomaly
129.25784°
Mean anomaly
128.4443°
Eccentric anomaly
128.85165°
Mean motion
3.72325 °/min
Orbital period
96.69 mins
BSTAR
0.00086174
Loading maneuver chart data...
Computing Atmospheric mass density...
Loading historical data...
Loading historical data...
Loading historical data...
Loading historical data...
Loading historical data...
Loading historical data...
Loading historical data...

Documentation

Showing up to 5 results
|